Regional Weather Roundup
Issued by NWS Newport/Morehead, NC

Current Version | Previous Version | Text Only | Print | Product List | Glossary On
Versions: 1 2 3 4 5 6 7 8 9 10 11 12 13 14 15 16 17 18 19 20 21 22 23 24 25 26 27 28 29 30 31 32 33 34 35 36 37 38 39 40 41 42 43 44 45 46 47 48 49 50
000
ASUS42 KMHX 292213
RWRMHX
WEATHER ROUNDUP FOR EASTERN NORTH CAROLINA
NATIONAL WEATHER SERVICE NEWPORT/MOREHEAD CITY NC
600 PM EDT FRI MAY 29 2015

NOTE: "FAIR" INDICATES FEW OR NO CLOUDS BELOW 12,000 FEET
WITH NO SIGNIFICANT WEATHER AND/OR OBSTRUCTIONS TO VISIBILITY

NCZ015>017-031-032-045>047-102-103-292300-
NORTH COAST

CITY           SKY/WX    TMP DP  RH WIND       PRES   REMARKS
EDENTON          N/A     80  69  70 E10       30.20F
ELIZABETH CITY SUNNY     79  67  66 E13       30.21F
KITTY HAWK     CLEAR     76  69  77 E6        30.21F
MANTEO         MOSUNNY   76  69  76 E9        30.22F

$$

NCZ045>047-081-094-103-104-292300-
CENTRAL COAST

CITY           SKY/WX    TMP DP  RH WIND       PRES   REMARKS
FRISCO         SUNNY     80  66  62 SE8       30.22F
SWANQUARTER      N/A     81 N/A N/A SE10G17   30.18S

$$

NCZ095-097-098-100-101-292300-
SOUTHERN COAST

CITY           SKY/WX    TMP DP  RH WIND       PRES   REMARKS
BEAUFORT       SUNNY     78  68  71 SE12      30.20F
CEDAR ISLAND     N/A     79 N/A N/A E10       30.24F
JACKSONVILLE   MOSUNNY   80  66  62 SE9       30.19F
PINEY ISLAND   MOCLDY   N/A N/A N/A SE12      30.20F
WILMINGTON     PTSUNNY   79  67  66 SE10      30.19F


$$

NCZ011>013-027>030-043-044-078>080-089-090>093-098-292300-
COASTAL PLAIN

CITY           SKY/WX    TMP DP  RH WIND       PRES   REMARKS
AHOSKIE        MOSUNNY   83  62  47 E3        30.18F
CLINTON        SUNNY     85  65  51 CALM      30.17F
ELIZABETHTOWN  SUNNY     86  63  46 E9        30.16F
GOLDSBORO      SUNNY     88  61  40 CALM      30.14F
GREENVILLE     SUNNY     84  64  51 SE9       30.19F
HAVELOCK       MOSUNNY   81  66  60 SE12      30.20F
KENANSVILLE    MOSUNNY   83  60  46 SE3       30.17F
KINSTON        MOSUNNY   82  63  51 SE6       30.18F
NEW BERN       SUNNY     81  66  60 SE8       30.20F
RICHLANDS      SUNNY     82  63  51 SE12      30.19S
ROCKY MOUNT    SUNNY     87  59  38 S7        30.17F
WASHINGTON     SUNNY     82  64  52 SE10      30.19F
WHITEVILLE     CLOUDY    83  65  55 SE7       30.16F

$$

AMZ130-135-150-152-154-156-158-170-250-252-270-ANZ085-086-088-633-658-670-292300-
MARINE OBSERVATIONS

STATION/POSITION TIME  TEMP    WIND        PRES    WAVE   SWELL
                       AIR SEA DIR/SP/G            HT/PER HT/PER
                 (UTC) (F)     (DEG/KT/KT) (MB)    (FT/S) (FT/S)
CHESAPEAKE LIGHT 2100   70     130/ 16/ 16 1024.4
64 E VA BEACH    2150   71 69   80/  4/  6 1023.6    3/ 7   3/ 7
DUCK             2100   73 59   80/ 12/ 13 1022.9
2 E DUCK         2111      69                N/A     2/ 8
OREGON INLET     2100   75 80   60/  8/ 11 1023.8
13E OREGON INLT  2200      76                N/A     3/ 9
HATTERAS CG      2100   78 78  140/  5/  7 1023.2
DIAMOND BUOY     2150   77 81  130/  8/ 10 1023.3    3/ 8   3/ 8
CAPE LOOKOUT     2200   76     110/  6/  6 1022.5
BEAUFORT LAB     2100   78 77  160/  9/ 13 1022.3
27 SE WRIGHTSVLE 2100      76   10/  4/  6   N/A
5 SE WRIGHTSVLE  2108   75 78  120/ 12/ 16 1022.7
225 S CAPE HAT   2150   76 75   90/ 12/ 14 1021.4    6/ 9   5/ 9
41 SE CHARLESTON 2150   78 79   90/ 10/ 12 1020.9    4/10   3/10

$$



USA.gov is the U.S. government's official web portal to all federal, state and local government web resources and services.